History Range:
146.850
Actions Date Temp RH
2019-02-07 13:33:32 41.0000 19.4000
2019-02-07 14:00:00 87.1000 18.8000
2019-02-07 14:34:07 87.1000 18.6000
2019-02-07 15:00:04 86.9000 18.3000
2019-02-07 15:30:00 86.9000 17.8000
2019-02-07 16:00:02 86.9000 17.7000
2019-02-07 16:30:00 86.9000 17.2000
2019-02-07 17:00:00 87.1000 16.6000
2019-02-07 17:30:00 86.9000 16.1000
2019-02-07 18:01:53 87.1000 3.0000
2019-02-07 18:32:54 87.1000 15.5000
2019-02-07 19:00:04 86.9000 15.5000
2019-02-07 19:32:31 86.5000 15.2000
2019-02-07 20:00:00 86.5000 14.7000
2019-02-07 20:30:00 86.5000 14.6000
2019-02-07 21:00:00 86.7000 14.5000
2019-02-07 21:30:02 86.5000 14.2000
2019-02-07 22:00:04 86.4000 14.1000
2019-02-07 22:30:02 86.4000 13.9000
2019-02-07 23:00:02 86.4000 13.5000